Weather History for Honolulu, HI

Change the Weather History Date:

Saturday, January 25, 2014

  Actual Average Record
Temperature  
Mean Temperature 71 °F 73 °F  
Max Temperature 80 °F 80 °F 85 °F (1981)
Min Temperature 62 °F 66 °F 56 °F (1969)
Degree Days  
Heating Degree Days 0 0  
Month to date heating degree days 0 0  
Since 1 July heating degree days 0 0  
Cooling Degree Days 6 8  
Month to date cooling degree days 194 202  
Year to date cooling degree days 194 202  
Growing Degree Days 20 (Base 50)    
Moisture  
Dew Point 58 °F    
Average Humidity 66    
Maximum Humidity 84    
Minimum Humidity 48    
Precipitation  
Precipitation 0.00 in 0.06 in 5.30 in (1879)
Month to date precipitation 1.98 1.94  
Year to date precipitation 1.98 1.94  
Snow  
Snow 0.00 in - - ()
Month to date snowfall 0.0  
Since 1 July snowfall 0.0  
Snow Depth 0.00 in    
Sea Level Pressure  
Sea Level Pressure 29.83 in    
Wind  
Wind Speed 10 mph (WSW)    
Max Wind Speed 23 mph    
Max Gust Speed 28 mph    
Visibility 10 miles    
Events      
T = Trace of Precipitation, MM = Missing Value Source: NWS Daily Summary

Daily Weather History Graph

Daily Weather History Graph

Search for Another Location

Airport:

Trip Planner

Search our weather history database for the weather conditions in past years. The results will help you decide how hot, cold, wet, or windy it might be!

Date:

Astronomy

Jan. 25, 2014 Rise Set
Actual Time 7:10 AM HST 6:17 PM HST
Civil Twilight 6:47 AM HST 6:40 PM HST
Nautical Twilight 6:20 AM HST 7:07 PM HST
Astronomical Twilight 5:53 AM HST 7:34 PM HST
Moon 1:57 AM HST (1/25) 1:26 PM HST (1/25)
Length of Visible Light 11h 53m
Length of Day
11h 06m
Waning Crescent, 32% of the Moon is Illuminated
Jan 25
Waning Crescent
Jan 30
New
Feb 6
First Quarter
Feb 14
Full
Feb 22
Last Quarter

Hourly Weather History & Observations

Time (HST) Temp. Dew Point Humidity Pressure Visibility Wind Dir Wind Speed Gust Speed Precip Events Conditions
12:53 AM 66.0 °F 57.9 °F 75% 29.86 in 10.0 mi Calm Calm - N/A   Partly Cloudy
1:53 AM 64.0 °F 57.0 °F 78% 29.84 in 10.0 mi Calm Calm - N/A   Partly Cloudy
2:53 AM 63.0 °F 57.0 °F 81% 29.82 in 10.0 mi NNE 3.5 mph - N/A   Partly Cloudy
3:53 AM 64.0 °F 57.0 °F 78% 29.81 in 10.0 mi Calm Calm - N/A   Partly Cloudy
4:53 AM 64.9 °F 57.9 °F 78% 29.81 in 10.0 mi Calm Calm - N/A   Mostly Cloudy
5:53 AM 66.9 °F 59.0 °F 76% 29.81 in 10.0 mi Calm Calm - N/A   Mostly Cloudy
6:53 AM 70.0 °F 57.9 °F 65% 29.82 in 10.0 mi West 4.6 mph - N/A   Mostly Cloudy
7:53 AM 73.0 °F 55.9 °F 55% 29.83 in 10.0 mi SW 10.4 mph - N/A   Mostly Cloudy
8:53 AM 73.9 °F 55.0 °F 52% 29.84 in 10.0 mi SW 10.4 mph - N/A   Mostly Cloudy
9:53 AM 75.9 °F 57.0 °F 52% 29.86 in 10.0 mi SW 15.0 mph - N/A   Mostly Cloudy
10:53 AM 78.1 °F 57.0 °F 48% 29.86 in 10.0 mi WSW 17.3 mph 23.0 mph N/A   Mostly Cloudy
11:53 AM 77.0 °F 57.0 °F 50% 29.84 in 10.0 mi WSW 15.0 mph - N/A   Mostly Cloudy
12:53 PM 79.0 °F 57.0 °F 47% 29.81 in 10.0 mi WSW 21.9 mph 27.6 mph N/A   Mostly Cloudy
1:53 PM 78.1 °F 57.0 °F 48% 29.79 in 10.0 mi WSW 16.1 mph - N/A   Mostly Cloudy
2:53 PM 78.1 °F 57.0 °F 48% 29.78 in 10.0 mi SW 16.1 mph - N/A   Mostly Cloudy
3:53 PM 78.1 °F 57.9 °F 50% 29.78 in 10.0 mi SW 17.3 mph - N/A   Mostly Cloudy
4:53 PM 75.9 °F 57.9 °F 54% 29.80 in 10.0 mi SW 13.8 mph - N/A   Mostly Cloudy
5:53 PM 75.0 °F 57.9 °F 55% 29.81 in 10.0 mi WSW 13.8 mph 20.7 mph N/A   Mostly Cloudy
6:53 PM 75.0 °F 60.1 °F 60% 29.82 in 10.0 mi SW 13.8 mph - N/A   Mostly Cloudy
7:53 PM 75.0 °F 61.0 °F 62% 29.84 in 10.0 mi WSW 12.7 mph - N/A   Mostly Cloudy
8:53 PM 75.0 °F 61.0 °F 62% 29.85 in 10.0 mi SW 11.5 mph - N/A   Mostly Cloudy
9:53 PM 75.9 °F 61.0 °F 60% 29.86 in 10.0 mi West 13.8 mph - N/A   Mostly Cloudy
10:53 PM 75.9 °F 62.1 °F 62% 29.87 in 10.0 mi West 10.4 mph - N/A   Mostly Cloudy
11:53 PM 75.0 °F 62.1 °F 64% 29.87 in 10.0 mi West 8.1 mph - N/A   Mostly Cloudy